Other Public Products
Issued by NWS Grand Forks, ND

Home | Current Version | Previous Version | Graphics & Text | Print | Product List | Glossary On
Versions: 1 2 3 4 5 6 7 8 9 10 11 12 13 14 15 16 17 18 19 20 21 22 23 24 25 26 27 28 29 30 31 32 33 34 35 36 37 38 39 40 41 42 43 44 45 46 47 48 49 50
000
FPUS83 KFGF 290310
OPUFGF
PRAIRIE TO PINES WEATHER ROUNDUP
NATIONAL WEATHER SERVICE EASTERN NORTH DAKOTA/GRAND FORKS ND
1000 PM CDT SAT MAR 28 2015

 **SATELLITE DATA USED TO AUGMENT SKY COVER AT AUTOMATED STATIONS**
 *****  WEATHER ACROSS EASTERN NORTH DAKOTA  *****

CITY           SKY/WX    TMP DP  RH WIND       PRES   REMARKS
GRAND FORKS    CLOUDY    46  30  53 S21G31    29.56F
GRAND FORKS AF NOT AVBL
GRAND CITY NWS   N/A     41 N/A N/A S28         N/A
BUXTON         NOT AVBL
DEVILS LAKE    CLOUDY    45  37  76 S22G29    29.51F
FARGO          LGT RAIN  45  30  55 SE28G38   29.64F
WAHPETON ARPT  MOCLDY    41  30  65 SE20G25   29.71F
$$

 *****  WEATHER ACROSS CENTRAL AND WESTERN NORTH DAKOTA  *****

CITY           SKY/WX    TMP DP  RH WIND       PRES   REMARKS
JAMESTOWN      CLOUDY    49  32  52 W29G44    29.70R
BISMARCK       LGT RAIN  55  52  89 W7        29.61R
MINOT          CLOUDY    54  47  77 W18G24    29.49R
MINOT AFB      DRIZZLE   53  52  99 NW20G26   29.47R
GARRISON         N/A     53  48  83 W22G31    29.54R
WILLISTON      LGT RAIN  52  42  69 W29G36    29.61R
DICKINSON      MOCLDY    48  39  71 W22       29.67R
HETTINGER      MOCLDY    48  40  73 NW25      29.74R
$$

 *****  OTHER OBSERVATIONS NORTHEAST NORTH DAKOTA  *****

CITY           SKY/WX    TMP DP  RH WIND       PRES   REMARKS
WALHALLA       NOT AVBL
LANGDON        NOT AVBL
CAVALIER       MOCLDY    41  36  81 SW14G20   29.58R
GRAFTON        NOT AVBL
CANDO          NOT AVBL
FORT TOTTEN      N/A     45  37  73 S14       29.95S
ROLLA          MOCLDY    41  41 100 SE7       29.48F
RUGBY          FAIR      48  39  71 S15G21    29.44F
 ***** THE ABOVE OBSERVATIONS ARE NON NWS ARE NOT QUALITY
        CONTROLLED AND MAY MIS-REPORT RAIN FOR SNOW...
$$

 *****  OTHER OBSERVATIONS SOUTHEAST NORTH DAKOTA *****

CITY           SKY/WX    TMP DP  RH WIND       PRES   REMARKS
COOPERSTOWN    NOT AVBL
VALLEY CITY    FAIR      45  32  61 S22G31    29.56F
OAKES            N/A     46  32  57 S21       29.60F
GWINNER        CLEAR     45  32  61 S17         N/A
SHEYENNE NWR     N/A     44  30  57 S15       29.95S
BUFFALO        NOT AVBL
WYNDMERE         N/A     45  30  57 SE18        N/A
 ***** THE ABOVE OBSERVATIONS ARE NON NWS ARE NOT QUALITY
       CONTROLLED AND MAY MIS-REPORT RAIN FOR SNOW...
$$

  *****  WEATHER ACROSS NORTHERN MINNESOTA  *****

CITY           SKY/WX    TMP DP  RH WIND       PRES   REMARKS
FLAG ISLAND    CLOUDY    36  28  75 S15       29.64S
WARROAD        CLOUDY    39  30  70 S18G26    29.64F
ROSEAU         CLOUDY    39  30  70 S22G30    29.62F
HALLOCK        MOCLDY    43  30  61 S21       29.61R
THF RVR FALLS  PTCLDY    39  28  65 S22G29    29.63F
HALSTAD        NOT AVBL
FOSSTON        MOCLDY    37  27  65 S23G35    29.67F
BAUDETTE       CLOUDY    39  26  59 S18G30    29.67F
WASKISH        MOCLDY    39  27  60 S10G18    29.72F
CROOKSTON      MOCLDY    43  30  61 S25G33    29.62F
$$
  *****  WEATHER ACROSS CENTRAL AND WEST MINNESOTA  *****

CITY           SKY/WX    TMP DP  RH WIND       PRES   REMARKS
BEMIDJI        PTCLDY    37  26  66 S20G28    29.74F
PARK RAPIDS    PTCLDY    41  26  55 S21G30    29.77F
WADENA         PTCLDY    36  27  69 S14G20    29.80F
DETROIT LAKES  PTCLDY    39  30  70 S17G29    29.73F
MOORHEAD       MOCLDY    43  32  65 S23G30    29.67F
FERGUS FALLS   PTCLDY    39  27  60 S22G30    29.77F
ELBOW LAKE     FAIR      39  30  69 SE25G32   29.76F
MORRIS MN      CLEAR     37  30  75 SE21      29.78F
STAPLES        PTCLDY    37  25  60 S13G18    29.83F
WHEATON        MOCLDY    39  28  65 SE21G26   29.74F
$$
  *****  WEATHER ELSEWHERE ACROSS MINNESOTA  *****

CITY           SKY/WX    TMP DP  RH WIND       PRES   REMARKS
DULUTH         PTCLDY    35  16  45 S18G25    29.92F WCI  24
INTRNTL FALLS  CLOUDY    39  20  46 S14G24    29.75F
ELY            CLEAR     36  14  41 S13G20    29.85F
CLOQUET        PTCLDY    36  16  44 S9G17     29.91F
BRAINERD       MOCLDY    36  23  59 S18G26    29.87F
HIBBING        MOCLDY    36  17  46 S10G18    29.86F
ALEXANDRIA     CLEAR     40  27  59 S22G30    29.82F
SAINT CLOUD    MOCLDY    35  24  64 SE15      29.92F
MINNEAPOLIS    CLOUDY    36  22  56 SE13      30.01F
$$

  *****  WEATHER ACROSS SOUTH DAKOTA  *****

CITY           SKY/WX    TMP DP  RH WIND       PRES   REMARKS
SIOUX FALLS    CLEAR     45  28  51 S18       29.83F
BROOKINGS      NOT AVBL
WATERTOWN      CLEAR     43  28  55 S22G33    29.72F
HURON          CLEAR     48  32  53 S22G32    29.67F
SISSETON         N/A     42  31  64 S18       29.68F
ABERDEEN       PTCLDY    49  31  49 S26G35    29.61F
MITCHELL       CLEAR     49  33  54 SE28G37   29.72F
PIERRE         PTCLDY    56  35  45 SE23G30   29.49F
MOBRIDGE       MOCLDY    63  36  36 SW13      29.61R
RAPID CITY     PTCLDY    59  37  44 NW39G49   29.73R
$$

  *****  SOME WEATHER IN NEARBY STATES *****

CITY           SKY/WX    TMP DP  RH WIND       PRES   REMARKS
GLASGOW MT     LGT RAIN  45  41  86 W22G29    29.75R
GREAT FALLS MT CLOUDY    49  25  39 W17G29    30.09R
CHEYENNE WY    CLEAR     60  25  26 W22G30    29.96R
SCOTTSBLUFF NE PTCLDY    71  22  15 W18       29.79R
OMAHA NE       CLEAR     46  32  58 S21       30.01S
DES MOINES IA  CLEAR     40  22  48 SE12      30.12S
DAVENPORT IA   CLEAR     32  14  47 S12       30.24S WCI  23
CHICAGO IL     CLEAR     25  12  58 SE9       30.29R WCI  15
EAU CLAIRE WI  PTCLDY    34  13  41 S10       30.08F
LA CROSSE WI   CLEAR     36  15  42 S10       30.14F
$$

  *****  SOME NATIONAL WEATHER *****

CITY           SKY/WX    TMP DP  RH WIND       PRES   REMARKS
LA GUARDIA NY  FLURRIES  30  17  58 NW16      30.10R WCI  19
RALEIGH NC     CLEAR     34  10  37 CALM      30.25R
ATLANTA GA     CLEAR     42  18  37 NW7       30.24R
NEW ORLEANS LA CLEAR     58  48  69 SE8       30.23R
OKLAHOMA CITY  CLEAR     65  45  48 SE12      30.00R
ALBUQUERQUE NM CLEAR     68  11  11 CALM      30.11R
SALT LAKE CITY PTCLDY    60  34  37 NW7       30.16R
LOS ANGELES CA PTCLDY    61  58  90 SW9       30.02S
BOISE ID       CLEAR     53  26  35 N7        30.27S
SEATTLE WA     CLOUDY    54  41  61 SW8       30.35R
$$

*** WEATHER ACROSS MANITOBA...SASKATCHEWAN AND ONTARIO ***
                ***ONTARIO***

CITY           SKY/WX    TMP DP  RH WIND       PRES   REMARKS
GERALDTON      PTCLDY    27  14  59 S16G22    29.86F WCI  14
THUNDER BAY    MOCLDY    30  14  51 SW7       29.95F WCI  23
SIOUX LOOKOUT  CLOUDY    36  14  41 S9        29.67F
TORONTO        CLEAR     21   9  58 NW7       30.25R WCI  13
BIG TROUT LK   LGT SNOW  32  30  93 SW9       29.57S WCI  24
PICKLE LAKE    NOT AVBL
DRYDEN         MOCLDY    37  19  48 S16G23    29.66F
KENORA         CLOUDY    39  25  56 S21G31    29.61F
$$
                *** MANITOBA***

CITY           SKY/WX    TMP DP  RH WIND       PRES   REMARKS
BRANDON        CLOUDY    37  36  93 N3        29.44R
DAUPHIN        LGT RAIN  37  36  93 W10       29.48R
ISLAND LAKE    LGT SNOW  32  32 100 SE3       29.47F
PILOT MOUND      N/A     41  39  93 S20         N/A
THE PAS        CLOUDY    36  34  93 NW12      29.57R
THOMPSON       SNOWSHWR  32  32 100 W5        29.50S
WINNIPEG       MOCLDY    41  32  70 S28G33    29.50F
LYNN LAKE      CLEAR     36  27  69 NW9       29.54R
CHURCHILL      CLOUDY    27  25  93 NW22G30   29.44R WCI  12
GILLAM         LGT SNOW  30  30 100 W5        29.47S VSB 1
$$
                ***SASKATCHEWAN***

CITY           SKY/WX    TMP DP  RH WIND       PRES   REMARKS
ESTEVAN        LGT RAIN  48  46  93 W9        29.55R
KINDERSLEY     PTCLDY    37  36  93 W8        29.89R
LLOYDMINSTER   PTCLDY    37  32  81 W12       29.86R
PRINCE ALBERT  MOCLDY    36  32  87 NW8       29.74R
REGINA         MOCLDY    39  36  87 N22G31    29.66R



USA.gov is the U.S. government's official web portal to all federal, state and local government web resources and services.